{"data":{"norad_id":53444,"intl_designator":"2022-098A","name":"DONGPO 07","alt_names":[],"object_type":"PAYLOAD","status":"ACTIVE","operator":null,"country":"PRC","launch_date":"2022-08-10","launch_site_code":"TAISC","launch_vehicle":null,"mission":null,"orbit_class":"UNKNOWN","rcs_meters":null,"size_class":null,"mass_kg":null,"dimensions":null,"purposes":[],"wikipedia_slug":null,"has_3d_model":false,"image_url":null,"decayed_at":null,"tle_current":{"epoch":"2026-09-20T23:21:53.523360Z","epoch_age_seconds":102778,"freshness":"FRESH","line1":"1 53444U 22098A   26263.97353615  .00578679  16716-3  76760-3 0  9994","line2":"2 53444  97.5578  44.6780 0006147 274.9604  85.0976 16.06725821229918","mean_motion":16.06725821,"eccentricity":0.0006147,"inclination_deg":97.5578,"raan_deg":44.678,"arg_perigee_deg":274.9604,"mean_anomaly_deg":85.0976,"bstar":0.0007676,"rev_number":22991,"period_min":89.623256263086,"perigee_km":251.76256914049,"apogee_km":259.91838104837,"semimajor_km":6633.9774750944,"source":"CELESTRAK","updated_at":"2026-09-21T09:00:09.037272Z"}}}